Wind_Speed
10 6 5 2 3 2 4 6 3 2 6 3 10 12 10 7 5 5 21 39 44 38 31 29 28 28 27 29 28 26 26 27 30 30 31 32 31 31 31 28 25 23 21 19 20 21 23 24 26
9 5 4 2 3 3 5 8 11 7 4 10 11 10 14 10 10 19 17 34 42 38 32 30 29 29 28 28 28 26 25 25 28 26 25 28 29 30 30 25 22 22 20 19 20 21 23 25 25
11 9 1 4 4 10 4 8 12 11 22 20 7 4 7 13 20 11 37 39 36 35 31 29 29 28 28 28 27 28 28 25 28 26 24 26 26 24 24 22 22 21 21 20 20 20 22 22 21
3 3 4 1 11 13 9 4 9 8 5 17 12 6 6 15 6 26 42 40 35 33 31 29 28 27 27 27 27 26 27 26 28 28 26 26 27 26 26 25 23 23 22 19 19 19 21 19 18
4 2 3 5 10 11 16 8 13 12 5 7 8 10 6 19 43 44 42 38 37 33 30 29 27 26 25 25 25 26 26 27 27 27 28 29 29 28 27 25 23 21 20 19 18 19 18 17 15
2 3 1 7 11 16 19 22 16 12 17 3 11 14 7 29 36 36 40 42 35 36 30 29 26 25 24 24 24 24 27 27 28 27 28 29 30 28 27 25 23 21 19 18 17 17 15 14 13
4 2 6 9 13 20 22 15 7 4 17 23 16 8 10 12 29 42 43 42 40 36 31 29 26 24 24 23 24 23 25 27 27 27 28 28 28 28 27 24 22 20 19 18 18 17 15 13 15
4 2 9 10 12 20 23 14 5 6 13 22 11 3 14 16 36 42 41 38 39 36 32 29 26 24 24 23 23 23 23 24 26 27 28 28 28 27 26 23 21 19 18 17 18 17 14 12 16
4 6 12 14 15 21 21 6 2 0 6 6 8 8 11 29 39 40 36 31 33 33 30 28 27 25 24 24 23 22 21 23 25 27 27 28 28 26 23 21 20 18 18 18 17 16 13 8 18
10 10 20 10 15 16 21 6 13 5 9 6 11 20 29 30 35 33 30 26 30 31 30 28 26 26 25 24 24 24 22 24 26 27 27 28 27 23 21 19 18 16 16 16 14 12 9 9 14
7 17 13 12 23 24 24 13 11 8 8 22 26 27 24 23 26 26 28 31 31 34 32 29 28 26 26 27 25 24 24 26 26 27 27 25 23 19 19 18 17 17 16 15 12 9 4 8 16
14 14 15 17 21 20 17 9 11 6 6 23 30 30 24 21 19 21 28 30 33 34 34 32 28 29 25 27 26 26 26 25 29 29 26 23 21 18 19 18 18 18 17 14 9 9 15 16 16
18 17 18 21 22 24 16 17 8 8 7 24 24 23 23 19 20 27 31 32 33 33 36 35 31 32 27 27 28 29 27 27 29 28 20 24 21 21 20 19 18 17 15 14 11 21 21 19 18
9 16 19 17 19 23 19 17 4 10 17 22 25 23 20 19 20 25 33 32 29 33 36 37 32 32 30 28 30 29 27 27 28 22 24 26 19 20 18 19 17 15 14 11 23 20 22 20 17
15 16 15 17 20 12 7 14 10 10 14 23 23 21 20 18 22 22 36 37 35 35 36 39 34 30 32 30 31 29 29 27 24 22 26 25 23 22 18 21 15 15 22 25 25 21 17 20 18
17 11 15 24 9 15 8 18 12 12 12 16 21 19 18 14 19 24 36 40 41 38 38 41 36 30 33 28 32 33 31 29 28 25 24 25 20 18 20 19 27 26 27 24 22 19 19 17 19
13 19 19 10 11 6 15 16 12 11 11 16 20 21 19 17 13 21 33 42 43 43 40 42 39 32 32 27 28 30 27 30 29 27 24 20 21 22 11 23 21 17 21 19 19 20 21 24 22
17 15 9 10 15 11 11 15 13 12 12 12 19 21 21 20 18 21 33 41 41 45 43 45 42 33 32 28 26 24 23 28 26 31 23 16 17 18 18 19 18 19 18 20 21 23 24 24 24
13 14 13 9 10 16 19 14 15 13 7 12 18 21 21 23 19 23 32 37 38 43 44 44 44 40 33 34 32 24 29 27 26 26 26 21 22 18 14 23 22 17 17 17 20 23 25 25 29
13 19 19 9 20 13 18 18 21 14 16 9 13 23 24 21 20 14 29 26 39 44 45 42 46 47 40 37 38 27 32 29 24 29 29 28 21 19 16 18 21 19 19 20 23 27 26 29 30
20 20 20 17 13 13 8 17 15 12 15 15 11 23 26 26 25 20 23 30 36 44 47 45 47 48 46 41 39 27 30 28 23 27 33 28 24 23 17 17 19 16 20 25 24 24 27 28 19
19 25 22 21 14 12 9 13 15 17 18 12 13 13 26 26 26 24 26 29 33 40 43 45 46 47 45 46 43 35 31 24 29 34 32 28 26 24 21 20 20 20 19 22 22 22 25 28 23
24 15 18 22 18 12 18 3 6 9 7 10 15 10 26 25 27 27 27 36 35 41 44 45 43 45 44 45 42 41 32 31 33 34 34 28 26 25 22 23 22 22 19 18 18 22 20 24 25
23 17 18 15 16 14 15 6 5 7 11 12 14 11 25 28 29 29 31 40 30 40 40 39 40 41 42 44 42 39 35 37 36 36 36 31 29 27 26 25 23 22 22 20 18 22 23 18 22
16 17 12 12 12 11 15 6 7 12 7 6 20 18 22 27 25 22 21 19 24 30 37 39 41 39 40 39 36 40 41 41 39 37 36 35 31 29 28 28 26 24 23 20 22 23 24 24 22
14 18 10 8 5 13 14 6 6 4 6 7 3 13 17 23 22 23 20 15 20 25 35 34 38 37 40 41 35 39 40 41 42 40 38 37 35 33 29 27 27 25 25 24 24 23 22 22 18
9 14 10 7 5 2 4 5 4 6 8 11 14 17 12 8 10 15 17 21 18 19 24 29 28 31 36 38 36 32 34 35 39 39 41 39 37 34 32 29 28 27 27 24 22 22 22 24 24
12 7 3 2 5 5 4 7 6 7 7 8 13 15 17 18 16 12 7 2 10 10 9 30 34 32 36 42 40 35 39 37 33 34 36 35 35 35 33 29 27 26 26 24 23 23 23 23 23
12 9 9 6 3 4 3 5 7 15 16 13 13 16 16 17 14 11 9 9 19 12 18 13 19 39 37 39 43 41 38 37 36 36 37 41 38 36 35 31 31 26 26 23 23 23 21 19 19
14 18 16 5 7 4 7 6 8 16 11 12 13 15 15 18 15 10 12 16 15 18 23 32 25 24 23 29 35 34 32 30 30 32 39 41 41 37 33 30 29 29 25 23 23 22 21 19 19
Wind_Direction
243 225 158 211 36 192 232 256 99 120 111 257 345 277 96 42 110 156 118 137 133 133 132 123 119 116 113 109 111 119 122 126 124 123 121 122 122 124 125 127 127 121 123 118 120 124 123 118 118
227 195 234 250 152 275 269 233 90 73 47 277 250 258 58 67 76 121 111 132 137 133 132 126 122 120 116 113 114 118 123 126 134 131 131 126 128 129 127 131 126 122 124 117 120 118 119 122 122
223 224 112 174 210 233 253 227 132 140 112 268 282 320 72 117 131 130 136 138 130 132 132 130 126 124 122 120 119 120 123 126 127 138 137 135 134 138 135 129 125 128 123 119 116 116 120 128 129
195 307 307 219 254 261 246 118 144 172 217 183 218 57 73 111 100 134 135 132 129 134 134 133 130 130 129 126 124 123 125 127 127 130 135 134 133 132 128 128 135 131 125 125 123 123 127 136 136
234 285 234 229 249 264 267 236 163 172 176 24 169 114 82 96 124 134 134 132 135 137 136 136 133 135 134 132 128 128 127 127 127 129 131 131 129 132 136 137 132 126 122 119 118 120 126 131 130
284 163 268 238 253 262 268 267 162 181 133 278 156 121 109 128 131 138 132 140 140 139 140 137 136 138 137 136 133 132 131 131 131 136 135 137 138 138 137 134 129 124 119 115 114 117 123 126 120
189 308 228 251 262 276 267 285 202 223 161 179 133 112 140 131 130 129 132 139 138 139 142 139 139 141 140 138 136 137 138 137 135 138 142 141 139 138 135 133 129 123 120 119 118 118 119 118 96
177 204 267 258 256 262 271 281 212 109 57 87 92 191 155 147 124 126 127 130 135 140 143 142 143 144 144 141 139 140 142 142 138 139 141 141 140 138 137 136 132 128 123 119 119 118 117 111 78
225 241 249 250 254 266 279 310 280 200 119 98 140 80 173 140 122 125 124 128 130 137 144 147 145 146 145 143 144 143 143 146 141 140 141 142 141 141 141 140 136 131 127 125 126 129 132 111 59
210 233 238 249 264 269 278 275 284 148 106 108 136 177 161 144 137 132 135 139 140 141 148 150 148 151 147 147 149 148 148 150 148 144 143 142 142 145 148 145 142 138 136 135 135 135 136 54 91
247 239 244 246 246 259 273 293 285 142 141 141 137 143 154 151 145 140 142 147 146 147 150 157 154 153 153 151 151 151 151 152 150 144 143 144 146 151 154 153 150 150 153 150 148 137 107 85 123
245 247 242 255 263 272 279 304 319 159 176 151 147 151 157 155 153 153 147 151 150 151 155 162 160 156 157 151 156 154 153 156 157 151 147 156 162 166 165 163 163 163 161 152 140 126 116 130 119
229 235 243 245 253 260 270 274 251 230 114 140 142 150 158 156 157 162 152 147 155 152 158 165 165 164 160 154 156 155 158 165 166 161 160 167 168 176 172 168 170 169 167 154 139 130 120 123 118
232 240 241 243 239 251 253 266 290 218 126 140 148 160 163 166 164 165 156 161 155 156 160 166 172 170 165 161 165 163 165 167 166 171 171 174 183 180 182 182 182 190 178 161 151 141 121 111 116
251 254 261 251 243 243 234 269 257 242 147 155 159 161 168 172 172 170 163 163 164 156 161 168 173 173 174 172 179 178 172 169 176 178 178 181 178 184 205 215 210 174 167 156 145 136 130 121 116
254 261 254 250 238 236 174 256 263 244 161 149 162 162 168 178 187 177 166 163 166 167 164 168 172 179 178 181 179 173 175 179 178 179 184 188 198 192 188 157 153 141 144 148 142 138 133 130 124
246 240 243 250 235 220 206 238 252 243 164 159 166 169 172 181 195 180 165 164 166 168 166 166 173 180 179 178 164 172 178 180 180 176 189 191 192 181 175 159 158 159 145 145 149 147 141 134 132
224 234 242 231 235 248 232 231 236 241 217 184 175 173 173 180 193 179 161 165 167 167 167 168 174 178 179 179 166 172 179 180 182 180 187 183 178 182 161 167 150 151 154 155 154 148 148 146 137
225 242 232 256 240 219 237 223 223 229 202 223 171 175 176 178 181 181 167 167 166 166 167 166 170 177 178 179 174 180 185 192 182 177 181 179 172 176 167 168 159 155 170 170 163 157 151 148 145
233 236 247 247 235 210 230 231 214 206 226 202 189 180 179 177 175 171 177 174 166 170 169 168 171 177 179 180 183 188 185 193 194 178 180 185 176 174 161 171 166 164 178 169 167 161 154 154 160
225 233 245 241 266 249 214 229 212 217 205 226 206 185 179 176 176 172 180 194 173 172 171 170 172 176 177 180 184 186 187 194 177 180 178 178 184 189 170 182 181 169 172 170 170 172 168 160 169
231 230 242 257 250 255 245 241 206 200 208 217 226 188 184 179 180 177 179 187 174 174 173 172 172 175 178 181 183 185 182 185 171 176 173 174 184 185 181 176 177 180 180 180 181 182 183 179 174
242 234 234 242 254 257 272 163 226 156 213 229 233 198 181 179 180 183 181 182 169 172 176 178 174 175 179 184 185 187 180 182 177 174 173 172 178 184 182 185 181 188 184 191 191 189 188 197 194
239 248 257 250 241 247 244 170 263 192 205 235 238 212 178 184 182 183 184 182 173 174 176 176 176 180 183 183 190 190 182 178 169 174 174 178 182 183 186 188 189 189 193 194 192 193 198 195 204
229 227 237 243 243 239 230 206 226 217 204 226 224 227 182 176 180 178 176 178 171 167 179 180 179 180 185 191 195 194 185 180 176 177 176 180 180 180 186 190 191 189 186 187 190 195 200 204 206
237 231 214 218 202 231 236 196 238 229 93 35 63 216 180 177 167 169 164 155 181 182 181 183 180 180 182 191 202 200 194 181 184 187 187 188 189 190 190 194 193 190 191 192 198 198 198 207 213
283 238 200 222 223 193 195 285 25 125 77 65 43 69 69 113 111 146 149 158 152 186 186 177 181 182 183 189 201 196 189 183 186 185 188 191 194 192 192 196 195 190 190 190 196 200 201 206 209
25 343 292 170 191 220 256 202 211 134 124 88 78 69 77 74 64 84 89 115 158 160 213 185 181 182 185 189 197 201 199 192 184 184 186 186 192 189 188 194 196 190 191 191 193 199 201 205 205
11 19 347 315 155 210 255 260 2 173 155 129 99 85 91 88 78 60 72 53 193 173 171 198 192 185 192 194 193 196 196 194 187 180 185 185 185 184 185 192 192 193 195 191 192 197 196 200 203
83 31 15 1 325 310 193 260 339 99 78 87 84 85 91 97 97 82 68 74 146 156 181 196 264 262 199 184 183 180 182 190 196 186 183 181 179 184 189 191 196 189 193 193 194 189 196 200 204
Height
756 758 759 761 787 779 779 764 743 756 759 751 752 747 729 724 735 773 758 757 759 766 773 775 778 780 782 781 783 788 791 795 797 800 803 804 806 808 810 814 819 822 825 827 829 830 831 832 834
755 757 759 761 788 794 774 743 767 756 746 740 754 741 726 742 732 750 758 760 761 765 772 776 779 782 784 785 786 790 793 797 798 803 806 807 810 812 814 818 821 823 826 829 829 830 832 835 837
754 757 764 773 781 780 771 738 751 747 726 746 747 727 726 744 741 746 755 760 763 767 773 777 780 783 786 788 789 793 796 800 800 805 808 810 812 814 817 820 823 826 827 829 831 833 834 837 839
754 755 757 773 776 752 746 738 739 740 731 718 737 736 729 732 735 744 754 759 762 768 775 778 781 785 787 790 792 795 798 802 804 806 810 812 814 816 820 823 825 827 830 832 833 834 836 838 841
755 758 775 775 765 742 728 722 728 731 724 726 724 739 741 735 741 747 751 758 761 770 777 780 782 787 789 791 794 797 800 803 805 809 812 814 817 820 822 825 828 830 831 833 835 836 837 840 842
762 755 779 781 759 735 719 703 724 725 729 745 733 728 740 739 745 748 749 758 763 769 778 781 784 789 790 793 796 799 801 804 806 809 813 816 818 822 825 828 830 832 834 836 837 838 840 842 844
761 767 773 767 754 737 717 700 707 700 729 733 717 737 736 736 744 747 750 758 764 770 778 782 786 790 792 795 797 801 804 805 807 810 813 817 820 823 827 830 832 834 836 838 839 840 840 843 847
750 761 767 757 752 740 705 702 695 696 712 701 714 747 744 733 741 746 753 761 765 771 779 782 786 790 793 796 799 802 805 808 809 812 815 819 821 825 827 831 833 835 837 839 840 842 842 844 849
738 764 762 755 749 729 701 712 688 685 699 711 723 735 742 738 741 746 756 765 768 773 779 783 786 791 794 796 800 804 807 810 812 814 817 820 823 827 829 832 834 836 838 840 842 843 843 845 850
744 753 746 734 727 721 703 708 702 697 706 715 713 718 739 737 740 744 753 762 767 772 779 784 786 790 794 797 800 804 808 811 814 816 819 821 825 828 831 833 835 837 839 841 843 845 846 847 849
736 741 732 723 716 711 708 707 698 697 711 707 715 720 729 740 736 741 751 759 764 769 777 784 786 790 793 796 801 805 808 812 816 819 821 824 827 829 831 833 835 837 840 842 844 847 848 849 849
741 726 724 717 711 710 711 704 706 694 692 695 700 708 721 733 733 738 746 757 762 767 774 782 786 790 793 796 801 804 808 813 816 819 822 825 828 830 832 833 835 837 840 843 846 848 850 852 852
726 722 716 710 707 701 702 704 708 701 689 691 701 711 716 724 733 739 744 754 761 765 771 779 785 789 793 795 800 804 807 811 815 818 822 825 827 829 831 833 835 837 840 844 847 849 850 853 855
713 714 711 705 703 697 703 700 699 697 686 696 701 709 715 720 728 736 742 749 757 762 768 776 783 786 791 794 799 803 807 810 813 816 819 823 825 828 830 833 835 838 841 844 847 848 850 853 855
708 719 708 701 697 700 695 706 702 689 682 696 700 706 711 717 723 729 736 742 751 758 766 772 780 785 789 792 797 801 805 809 812 815 819 821 824 827 828 831 836 836 839 844 845 846 849 853 856
714 715 722 691 698 688 700 714 696 684 684 699 700 703 709 715 718 725 731 737 745 754 761 769 776 783 786 790 795 799 804 808 811 814 818 821 823 826 828 830 834 836 838 841 843 846 850 854 856
715 718 713 709 689 692 697 706 689 683 684 694 698 700 705 712 717 721 727 733 740 747 755 764 772 778 783 788 792 797 801 805 809 813 816 820 821 824 826 829 832 834 838 840 843 847 849 853 858
713 713 714 712 690 693 702 696 687 682 681 687 695 697 701 707 711 715 721 729 737 742 751 758 767 775 780 785 790 795 799 803 805 810 814 817 819 823 825 827 830 833 837 841 844 847 851 854 857
696 703 705 695 686 691 692 695 686 682 682 684 687 692 695 699 702 711 718 725 733 740 746 752 760 769 776 781 785 790 795 800 804 807 811 815 818 821 823 826 829 832 836 840 843 846 850 854 856
694 699 696 686 676 684 684 688 674 676 670 677 680 684 688 692 699 705 715 720 725 732 737 746 753 760 768 775 781 787 790 796 801 803 808 812 815 819 822 825 828 831 834 838 841 843 848 852 854
688 695 692 691 678 671 681 686 680 667 662 663 668 671 675 682 690 697 704 711 719 723 727 735 743 752 758 766 775 783 789 793 797 800 805 808 812 816 819 823 826 829 833 835 838 841 844 848 853
691 674 679 680 688 703 673 700 675 665 663 665 660 665 670 675 679 683 691 701 714 719 725 730 737 744 751 756 762 769 776 783 788 794 799 805 809 813 817 820 823 826 829 832 836 839 841 843 848
673 670 674 675 682 690 681 698 679 663 672 667 656 659 659 666 673 679 684 692 704 713 719 726 733 740 748 756 759 762 767 774 782 790 797 802 806 810 814 817 820 823 826 830 834 837 840 842 845
658 672 673 672 676 699 681 692 689 672 659 654 649 649 648 657 660 668 676 686 698 707 717 725 732 739 745 747 756 760 763 768 773 780 790 797 801 805 809 813 816 820 823 826 829 833 836 839 841
662 676 697 700 694 695 665 682 679 650 648 649 643 637 640 646 658 668 678 686 698 710 716 720 726 733 742 750 753 755 757 764 770 775 780 790 796 801 805 808 811 814 818 822 825 828 832 835 837
658 664 686 705 706 683 650 677 672 645 644 641 636 629 632 640 651 661 673 684 696 705 710 719 722 729 736 745 752 756 758 759 764 768 774 782 790 796 802 806 808 811 814 817 823 825 828 833 836
653 659 651 674 669 684 674 655 649 644 651 651 651 644 648 647 658 666 671 677 693 708 715 715 727 732 735 741 747 752 757 758 761 764 769 776 784 791 797 802 806 807 809 812 817 822 823 827 829
678 654 664 666 689 692 677 672 679 663 665 661 666 667 663 664 671 676 681 684 691 701 714 716 720 728 732 735 743 750 752 756 761 764 767 774 781 786 792 800 805 807 807 807 811 816 820 823 824
693 722 700 673 669 687 697 687 658 652 655 664 671 676 680 681 684 683 686 688 691 699 701 717 721 719 728 733 735 739 747 753 757 758 763 768 777 784 788 793 800 803 805 805 809 813 817 821 824
726 745 736 718 700 688 675 688 652 658 669 669 675 681 687 692 695 694 692 696 696 702 702 705 700 726 725 728 731 736 741 748 755 757 760 765 773 780 784 789 800 799 802 803 807 810 814 818 823